Wind_Speed
14 15 16 16 17 17 18 18 18 17 17 17 16 15 15 15 15 15 16 17 17 18 19 20 20 20 21 21 21 21 20 19 17 15 12 10 8 6 5 4 5 7 9 12
13 14 15 16 17 18 18 18 18 18 18 17 16 15 15 14 15 15 16 17 17 18 18 19 20 20 21 21 22 22 22 21 19 18 16 14 12 11 10 8 7 7 8 9
13 14 15 16 17 18 19 19 18 18 17 16 16 15 15 14 14 15 16 17 17 18 18 18 19 20 20 20 21 21 21 21 20 19 18 16 15 14 13 12 11 11 10 10
11 13 13 15 16 17 19 19 19 17 16 16 16 15 14 13 13 13 14 16 17 17 17 18 18 19 19 20 21 21 21 21 20 20 19 17 16 15 15 15 14 14 14 14
10 11 12 13 15 16 18 19 19 18 16 15 15 14 13 13 13 13 14 15 16 16 17 17 17 18 19 19 20 21 21 20 20 19 19 18 17 16 16 16 17 17 17 17
8 9 11 12 14 15 16 18 18 17 16 15 14 13 12 12 11 12 13 14 15 15 16 16 17 17 18 19 19 20 20 20 20 19 19 18 18 17 17 17 18 19 19 19
9 9 10 11 12 14 15 16 17 17 16 15 14 12 12 11 10 10 12 13 14 15 15 16 16 16 17 18 19 19 19 19 19 19 19 19 19 19 19 19 20 20 20 21
10 10 10 11 12 13 13 15 16 16 16 15 14 13 11 10 9 9 10 11 12 13 14 15 16 16 17 18 18 19 19 19 19 20 20 20 20 20 20 20 21 21 21 22
12 12 12 11 11 12 13 13 14 14 15 15 14 13 12 10 9 8 8 9 11 12 13 14 15 16 17 18 18 19 19 19 20 21 21 22 22 21 21 21 22 22 22 23
14 13 13 12 12 12 12 12 13 13 14 14 14 14 12 10 9 8 8 8 9 10 11 12 13 14 16 17 18 19 19 19 20 21 22 22 22 22 22 22 23 23 23 23
15 14 14 13 12 12 12 12 12 12 12 12 12 13 12 11 9 8 7 7 8 9 9 10 11 13 14 16 17 18 19 20 20 21 22 22 22 23 23 23 23 24 23 24
17 16 15 14 14 13 12 12 11 11 10 10 11 11 11 11 10 8 8 7 7 7 8 8 9 10 12 13 15 17 18 20 20 21 22 22 22 23 23 23 23 23 23 23
19 18 17 16 15 14 13 12 12 11 10 10 9 9 9 10 9 8 8 7 7 6 6 7 8 8 10 11 13 15 17 18 20 21 22 22 22 23 23 23 23 23 23 23
20 20 19 18 17 16 15 14 13 12 11 10 9 9 8 8 9 8 8 8 7 7 6 6 7 7 8 9 11 12 14 16 18 20 21 21 22 22 23 23 23 23 23 22
23 22 21 20 19 18 17 16 15 14 13 12 11 10 9 9 8 8 8 7 7 7 7 7 7 7 7 8 9 10 12 14 16 18 19 20 21 21 22 22 22 23 23 22
27 25 23 23 22 20 20 19 18 17 16 15 13 12 12 11 10 9 8 8 8 8 8 8 8 8 8 8 8 9 10 11 13 14 16 18 19 20 20 20 21 21 22 22
30 28 27 26 25 23 22 22 21 20 19 18 17 15 14 14 13 12 11 10 9 9 9 9 8 9 9 9 9 9 9 9 10 12 13 14 16 17 18 18 19 19 20 21
34 33 32 30 28 27 26 25 24 23 22 21 20 19 18 17 16 15 14 13 12 11 10 10 9 9 9 9 9 9 9 9 9 10 10 11 12 14 15 16 16 16 17 18
40 38 37 35 33 32 30 28 28 27 26 25 24 23 22 20 19 18 17 16 15 14 13 12 11 11 10 10 9 9 9 9 9 9 9 9 9 10 11 12 13 13 13 14
46 44 42 40 38 36 34 33 32 31 29 29 28 27 26 24 23 21 20 19 18 17 16 15 14 13 12 11 11 10 10 10 10 9 9 8 8 8 8 8 9 10 10 10
51 49 47 45 43 41 39 38 36 35 33 32 31 30 30 28 27 25 24 22 21 20 19 17 16 16 14 13 12 12 11 11 11 11 10 10 9 9 8 7 7 7 7 7
55 54 52 50 49 47 44 43 41 40 38 36 35 34 33 32 31 29 28 27 25 23 22 20 19 18 17 16 15 14 13 13 12 12 12 12 12 11 10 9 9 8 7 6
59 58 56 55 53 51 50 48 46 45 43 41 40 38 37 36 34 33 32 31 29 27 26 24 23 21 20 19 18 17 16 15 15 14 14 14 14 14 13 13 12 11 11 10
62 61 60 59 58 56 54 53 51 50 48 47 45 43 42 40 37 36 36 35 32 31 30 29 27 26 25 23 22 21 20 19 18 17 17 16 16 16 16 16 16 16 15 15
66 65 63 63 62 61 59 57 56 55 54 52 50 48 47 45 43 41 40 38 37 35 35 34 32 30 29 28 27 25 24 23 22 21 21 20 20 19 19 19 19 19 19 19
68 67 67 67 66 65 64 62 61 60 59 58 56 54 53 51 49 47 45 44 42 41 40 39 37 35 34 33 31 30 29 28 27 26 25 24 24 23 23 23 22 22 23 23
67 67 68 69 70 70 69 68 66 65 64 63 62 60 58 57 55 53 51 50 48 46 45 44 42 41 39 38 36 35 34 33 32 31 30 30 29 28 27 27 26 26 27 26
Wind_Direction
50 45 40 35 31 26 24 22 22 24 26 28 32 36 40 43 45 47 48 48 45 44 43 43 43 43 42 40 39 38 38 38 38 38 37 36 34 26 12 344 310 288 277 272
49 44 39 35 32 28 26 25 26 27 28 31 37 40 42 46 47 48 47 46 43 42 41 41 42 42 42 42 41 40 39 40 39 40 41 42 41 35 28 16 359 335 311 296
45 41 37 34 30 28 27 26 25 26 29 35 38 39 43 45 45 44 43 39 38 39 41 42 42 42 42 40 39 39 39 39 41 43 44 43 41 37 30 20 9 356 340 322
39 35 34 29 28 26 25 25 25 27 30 34 35 37 39 42 40 37 36 35 35 37 39 40 40 40 40 40 40 40 41 42 43 43 42 39 36 33 28 21 13 4 352 338
25 25 24 22 22 22 22 23 23 24 27 30 31 33 35 36 35 35 35 34 35 36 38 39 38 38 38 38 38 39 40 40 40 39 37 35 33 30 25 19 13 5 358 348
3 6 9 12 13 15 16 20 19 20 22 23 24 27 29 30 34 36 36 34 34 35 36 36 36 36 36 35 35 35 35 35 35 35 32 30 27 24 20 14 9 6 1 356
337 344 351 355 360 4 8 11 12 15 17 18 20 21 22 25 29 31 31 31 31 33 34 35 35 35 34 33 33 32 31 31 31 29 27 26 24 20 17 13 10 7 5 2
317 324 332 336 342 350 356 360 5 8 12 14 16 16 18 20 21 21 24 26 28 31 34 35 35 35 33 32 31 30 29 28 27 26 25 24 21 19 17 15 12 11 10 8
302 309 315 321 327 334 340 347 354 359 4 8 10 11 12 15 16 15 16 19 23 28 32 33 34 34 33 32 31 30 29 28 27 26 25 24 22 20 19 18 17 15 16 15
291 297 302 307 313 318 325 333 340 347 352 357 3 6 5 5 7 7 6 9 15 21 26 29 30 32 32 31 31 30 29 28 27 26 26 25 24 23 22 22 22 22 23 23
281 286 290 294 299 304 310 317 326 334 341 348 354 359 2 3 358 359 359 358 4 12 18 23 26 29 29 30 30 29 28 28 27 26 27 27 26 25 25 26 26 27 29 31
273 277 281 285 288 292 297 302 309 316 325 334 343 350 357 360 359 354 352 352 353 0 9 15 19 23 24 25 26 26 26 26 26 26 26 27 28 28 29 29 30 32 34 37
267 270 272 275 278 282 285 289 293 298 306 313 322 333 342 349 352 351 351 350 348 348 352 1 6 12 16 18 20 21 23 24 25 25 26 27 29 31 32 33 34 35 37 41
262 264 267 269 271 273 275 278 280 283 288 294 299 307 319 330 338 342 342 345 345 342 339 341 348 356 2 7 11 15 18 20 22 24 25 27 29 32 34 36 38 39 41 44
259 261 263 265 266 266 268 270 271 272 274 277 282 287 293 302 313 322 328 330 333 335 332 328 329 333 341 351 358 4 9 14 18 22 24 26 28 31 33 36 39 42 43 46
259 260 261 261 262 263 264 265 266 266 267 268 270 275 279 284 290 297 305 313 317 319 321 322 319 318 320 328 338 347 355 2 9 15 20 24 27 30 32 35 39 42 45 47
259 259 259 259 260 261 262 263 263 264 263 264 265 268 270 274 278 282 287 293 299 305 309 313 316 315 315 316 321 328 337 345 354 3 11 18 23 27 31 34 37 41 44 48
256 256 257 257 258 259 260 261 261 262 262 263 263 264 266 268 271 274 277 281 286 290 295 299 304 309 311 313 316 319 323 329 337 345 355 5 14 21 26 30 35 39 43 47
253 253 254 254 255 256 257 259 260 260 261 262 262 263 264 265 267 269 271 273 276 280 284 288 290 295 300 302 306 312 315 318 323 331 338 345 354 5 15 22 28 33 38 42
252 251 251 252 253 254 254 256 257 258 259 260 261 262 263 264 264 265 267 269 271 274 276 279 282 285 288 291 294 299 304 308 311 314 320 327 333 340 350 1 12 21 28 33
249 250 250 250 251 251 251 252 253 255 256 257 259 260 261 262 263 263 264 265 267 269 271 273 275 277 280 283 286 289 292 296 300 302 303 306 310 315 320 326 335 348 1 12
246 248 248 248 249 249 249 250 251 252 253 254 255 257 259 260 261 262 262 263 264 266 268 269 270 272 274 276 278 281 284 287 289 291 293 294 295 297 299 301 304 309 314 320
244 245 246 246 247 247 247 247 248 249 250 252 253 254 255 257 258 259 260 261 261 262 264 265 266 268 269 271 273 275 278 280 283 284 285 285 286 287 287 287 288 290 291 293
243 243 243 244 244 245 245 245 246 247 248 249 250 252 253 254 255 256 256 258 258 259 260 262 264 265 267 268 269 271 273 274 276 277 278 279 280 280 280 281 281 281 282 282
243 241 241 242 242 243 243 243 243 244 245 247 248 249 250 251 252 253 253 254 255 256 257 259 261 263 264 266 267 268 269 270 271 272 272 273 274 275 275 275 275 276 276 277
244 242 240 239 240 241 241 242 242 242 243 244 246 247 248 249 250 251 251 252 253 254 255 257 258 260 261 263 264 265 266 267 268 269 269 270 270 269 270 271 271 272 272 272
244 242 241 240 239 239 239 240 241 242 242 243 244 245 247 248 249 250 251 251 252 252 254 255 256 258 259 260 261 263 264 265 266 267 267 267 267 267 266 266 267 268 268 268
Height
5892 5890 5887 5884 5881 5877 5874 5870 5866 5862 5858 5855 5851 5847 5844 5842 5839 5836 5833 5830 5826 5823 5819 5816 5812 5808 5805 5801 5797 5794 5790 5787 5784 5781 5779 5777 5775 5774 5773 5772 5770 5769 5769 5768
5895 5892 5889 5886 5883 5879 5875 5871 5868 5864 5861 5857 5853 5850 5847 5844 5842 5839 5836 5833 5830 5826 5823 5819 5816 5812 5808 5805 5801 5798 5794 5790 5787 5784 5781 5779 5777 5775 5773 5771 5769 5767 5766 5764
5897 5894 5891 5888 5885 5881 5878 5874 5870 5866 5864 5859 5856 5853 5850 5847 5844 5842 5839 5836 5833 5829 5826 5823 5819 5816 5812 5809 5805 5801 5797 5794 5790 5787 5784 5781 5779 5776 5773 5771 5768 5766 5763 5761
5898 5896 5893 5893 5887 5883 5880 5876 5872 5868 5865 5862 5858 5855 5852 5849 5847 5844 5841 5838 5835 5832 5829 5826 5823 5819 5816 5812 5809 5805 5801 5797 5794 5790 5787 5784 5781 5778 5775 5771 5768 5765 5761 5758
5899 5897 5895 5892 5889 5885 5882 5878 5874 5871 5867 5864 5860 5858 5855 5852 5849 5847 5844 5841 5838 5835 5832 5829 5826 5822 5819 5816 5812 5808 5805 5801 5797 5793 5790 5786 5783 5779 5776 5772 5768 5764 5759 5755
5899 5897 5895 5894 5890 5886 5884 5880 5877 5873 5869 5866 5863 5860 5858 5854 5851 5849 5846 5843 5841 5838 5835 5832 5828 5825 5822 5819 5815 5811 5808 5804 5800 5796 5793 5789 5785 5781 5777 5772 5768 5763 5758 5753
5898 5897 5895 5893 5890 5888 5886 5884 5878 5874 5871 5868 5864 5862 5859 5856 5853 5851 5849 5846 5843 5840 5837 5834 5831 5828 5825 5821 5818 5814 5811 5807 5803 5799 5795 5791 5786 5782 5778 5773 5768 5763 5757 5751
5897 5896 5896 5892 5889 5888 5886 5882 5879 5876 5872 5869 5866 5863 5860 5857 5855 5853 5851 5848 5845 5843 5840 5837 5834 5831 5828 5824 5821 5817 5813 5809 5806 5801 5797 5793 5788 5784 5779 5774 5769 5763 5757 5751
5896 5896 5893 5890 5889 5887 5885 5882 5879 5877 5874 5870 5867 5864 5861 5858 5856 5854 5852 5850 5847 5844 5842 5839 5836 5833 5830 5827 5823 5820 5816 5812 5808 5804 5799 5795 5790 5785 5780 5775 5770 5764 5758 5752
5891 5891 5890 5888 5887 5885 5883 5881 5879 5877 5874 5871 5868 5865 5862 5859 5857 5854 5852 5850 5848 5846 5843 5841 5838 5835 5833 5829 5826 5822 5819 5815 5811 5806 5802 5797 5792 5788 5783 5778 5772 5767 5761 5755
5888 5887 5886 5885 5884 5883 5881 5879 5878 5876 5873 5871 5868 5865 5862 5859 5857 5855 5853 5851 5849 5847 5845 5842 5840 5837 5835 5832 5829 5825 5822 5818 5814 5809 5805 5800 5795 5791 5786 5781 5775 5770 5765 5759
5884 5884 5883 5882 5881 5880 5879 5877 5876 5874 5872 5870 5868 5865 5862 5860 5857 5855 5853 5851 5849 5847 5845 5843 5841 5839 5836 5834 5831 5828 5824 5820 5817 5812 5808 5803 5799 5794 5789 5784 5779 5774 5769 5764
5878 5878 5878 5877 5877 5876 5875 5874 5873 5871 5870 5868 5866 5864 5862 5860 5857 5855 5853 5851 5849 5847 5845 5843 5842 5840 5837 5835 5832 5830 5826 5823 5819 5815 5811 5807 5802 5798 5793 5788 5783 5779 5774 5769
5872 5872 5872 5872 5872 5871 5871 5870 5869 5868 5867 5865 5864 5862 5861 5859 5856 5854 5852 5850 5848 5846 5845 5843 5842 5840 5838 5836 5833 5831 5828 5825 5822 5818 5814 5810 5806 5802 5797 5793 5788 5784 5779 5775
5865 5866 5866 5866 5866 5866 5865 5865 5865 5864 5863 5862 5861 5860 5858 5857 5855 5853 5851 5849 5847 5846 5844 5842 5841 5839 5838 5836 5834 5831 5829 5826 5823 5820 5817 5813 5809 5805 5801 5797 5793 5789 5785 5781
5857 5858 5859 5859 5859 5860 5859 5859 5859 5859 5858 5858 5857 5856 5855 5854 5853 5851 5849 5848 5846 5844 5843 5841 5839 5838 5836 5835 5833 5831 5829 5827 5824 5822 5819 5816 5812 5809 5805 5802 5798 5794 5790 5787
5849 5850 5851 5851 5852 5852 5853 5853 5853 5853 5853 5853 5852 5852 5851 5850 5849 5848 5847 5845 5844 5842 5841 5839 5838 5836 5835 5833 5832 5830 5829 5827 5825 5822 5820 5817 5815 5812 5808 5805 5802 5799 5796 5792
5838 5839 5841 5842 5843 5844 5845 5845 5846 5846 5846 5846 5846 5846 5846 5846 5845 5844 5843 5842 5841 5839 5838 5837 5835 5834 5833 5831 5830 5828 5827 5826 5824 5822 5820 5818 5816 5813 5811 5808 5806 5803 5800 5798
5825 5827 5829 5831 5832 5834 5835 5836 5837 5838 5838 5839 5839 5840 5840 5840 5840 5839 5839 5838 5837 5836 5835 5833 5832 5831 5830 5829 5827 5826 5825 5824 5822 5821 5819 5818 5816 5814 5812 5810 5808 5806 5804 5801
5810 5813 5816 5818 5820 5823 5825 5826 5827 5828 5829 5830 5831 5832 5832 5833 5833 5833 5833 5832 5832 5831 5830 5829 5828 5827 5826 5825 5824 5823 5822 5821 5820 5819 5818 5816 5815 5813 5812 5810 5809 5807 5805 5803
5794 5798 5801 5804 5807 5810 5812 5814 5815 5817 5819 5820 5822 5822 5823 5824 5825 5826 5826 5826 5826 5825 5825 5824 5823 5822 5822 5821 5820 5819 5818 5818 5817 5816 5815 5814 5813 5812 5810 5809 5808 5807 5805 5804
5778 5781 5784 5788 5791 5795 5798 5800 5803 5805 5807 5809 5810 5812 5813 5815 5816 5817 5817 5818 5818 5818 5818 5818 5817 5817 5816 5815 5815 5814 5814 5813 5813 5812 5812 5811 5810 5809 5808 5807 5806 5805 5804 5803
5760 5763 5766 5770 5774 5778 5781 5785 5788 5791 5793 5796 5798 5799 5801 5803 5805 5807 5807 5808 5809 5810 5810 5810 5810 5810 5809 5809 5809 5808 5808 5808 5807 5807 5807 5806 5806 5805 5804 5804 5803 5802 5801 5801
5739 5743 5747 5751 5755 5759 5763 5767 5771 5774 5778 5780 5783 5786 5788 5790 5793 5795 5796 5797 5799 5800 5800 5801 5801 5801 5801 5801 5801 5801 5801 5801 5801 5801 5800 5800 5800 5799 5799 5799 5798 5798 5797 5797
5716 5722 5726 5731 5735 5739 5744 5748 5752 5756 5760 5763 5767 5770 5773 5776 5778 5781 5783 5785 5786 5788 5789 5789 5790 5791 5792 5792 5792 5792 5793 5793 5793 5793 5793 5793 5793 5793 5792 5792 5792 5791 5791 5791
5691 5697 5703 5709 5714 5718 5723 5728 5732 5736 5740 5744 5748 5752 5755 5759 5762 5765 5767 5770 5772 5774 5775 5777 5778 5779 5780 5781 5782 5782 5783 5783 5783 5783 5783 5784 5784 5784 5784 5784 5784 5784 5784 5783
5666 5672 5679 5685 5690 5696 5701 5706 5710 5715 5720 5724 5728 5732 5736 5740 5743 5747 5750 5753 5756 5758 5760 5762 5764 5766 5767 5769 5770 5771 5771 5772 5772 5773 5773 5773 5774 5774 5774 5774 5775 5775 5774 5774